EW5657 Weather Reports


time (UTC)temp
F
wind
direction
speed
knots
gust
knots
rain 1hr
in
rain 24hr
in
rain mn
in
humidity
%
barometer
mb
20260831052946 58 200 1.7 4.3 0.00 0.00 0.00 78 1028.8
20260831052444 58 201 1.7 4.3 0.00 0.00 0.00 78 1028.9
20260831051943 58 192 1.7 4.3 0.00 0.00 0.00 78 1028.9
20260831051442 58 161 1.7 3.5 0.00 0.00 0.00 78 1029.0
20260831050944 58 210 1.7 3.5 0.00 0.00 0.00 78 1029.0
20260831050444 58 213 1.7 3.5 0.00 0.00 0.00 78 1029.1
20260831045943 58 224 0.9 3.5 0.00 0.00 0.00 79 1029.2
20260831045442 57 224 1.7 5.2 0.00 0.00 0.00 80 1029.3
20260831044944 57 224 1.7 5.2 0.00 0.00 0.00 79 1029.5
20260831044443 57 214 1.7 6.1 0.00 0.00 0.00 79 1029.6
20260831043944 57 224 0.9 6.1 0.00 0.00 0.00 80 1029.7
20260831043441 57 194 0.9 4.3 0.00 0.00 0.00 80 1029.7
20260831042949 56 196 1.7 4.3 0.00 0.00 0.00 81 1029.9
20260831042945 56 191 1.7 4.3 0.00 0.00 0.00 81 1029.8
20260831041949 56 204 2.6 7.0 0.00 0.00 0.00 80 1030.1
20260831041944 56 197 1.7 7.0 0.00 0.00 0.00 82 1030.0
20260831040942 56 185 1.7 4.3 0.00 0.00 0.00 81 1030.2
20260831040444 56 197 1.7 5.2 0.00 0.00 0.00 82 1030.3
20260831035943 55 204 1.7 5.2 0.00 0.00 0.00 81 1030.3
20260831035448 56 191 2.6 7.0 0.00 0.00 0.00 80 1030.4
20260831035444 55 203 2.6 5.2 0.00 0.00 0.00 81 1030.3
20260831034444 56 211 1.7 7.0 0.00 0.00 0.00 80 1030.5
20260831033943 56 215 1.7 4.3 0.00 0.00 0.00 81 1030.6
20260831033442 56 206 1.7 4.3 0.00 0.00 0.00 81 1030.7
20260831032940 56 180 1.7 4.3 0.00 0.00 0.00 81 1030.8
20260831032440 55 185 1.7 4.3 0.00 0.00 0.00 81 1030.9
20260831031940 56 206 1.7 5.2 0.00 0.00 0.00 81 1031.0
20260831031440 55 185 1.7 5.2 0.00 0.00 0.00 82 1031.0
20260831030940 55 203 1.7 5.2 0.00 0.00 0.00 81 1031.0
20260831030442 55 175 1.7 5.2 0.00 0.00 0.00 81 1031.2
20260831025940 55 201 1.7 5.2 0.00 0.00 0.00 82 1031.2
20260831025440 55 207 1.7 7.0 0.00 0.00 0.00 82 1031.4
20260831024939 55 200 2.6 7.0 0.00 0.00 0.00 82 1031.6
20260831024441 55 195 1.7 7.0 0.00 0.00 0.00 81 1031.6
20260831023937 55 233 2.6 7.8 0.00 0.00 0.00 82 1031.7
20260831023439 55 222 2.6 7.8 0.00 0.00 0.00 82 1031.7
20260831022936 55 175 1.7 5.2 0.00 0.00 0.00 82 1031.9
20260831022443 55 224 1.7 5.2 0.00 0.00 0.00 82 1032.1
20260831022437 55 190 1.7 5.2 0.00 0.00 0.00 82 1032.0
20260831021435 55 222 1.7 6.1 0.00 0.00 0.00 82 1032.2
20260831020932 55 256 2.6 7.0 0.00 0.00 0.00 82 1032.2
20260831020434 55 235 2.6 7.0 0.00 0.00 0.00 82 1032.3
20260831015933 55 198 2.6 4.3 0.00 0.00 0.00 82 1032.4
20260831015433 55 206 2.6 4.3 0.00 0.00 0.00 81 1032.5
20260831014931 55 233 1.7 4.3 0.00 0.00 0.00 82 1032.5
20260831014431 55 195 1.7 4.3 0.00 0.00 0.00 83 1032.7
20260831013936 54 193 1.7 4.3 0.00 0.00 0.00 84 1032.8
20260831013932 55 206 1.7 4.3 0.00 0.00 0.00 83 1032.7
20260831013429 54 230 1.7 4.3 0.00 0.00 0.00 84 1032.7
20260831012428 54 197 1.7 4.3 0.00 0.00 0.00 83 1032.9
20260831011931 54 197 0.9 3.5 0.00 0.00 0.00 85 1032.9
20260831011926 54 218 0.9 3.5 0.00 0.00 0.00 84 1032.9
20260831010927 54 195 1.7 3.5 0.00 0.00 0.00 85 1032.9
20260831010425 53 197 1.7 4.3 0.00 0.00 0.00 85 1033.0
20260831005927 53 197 0.9 4.3 0.00 0.00 0.00 85 1033.0
20260831005423 53 199 0.9 3.5 0.00 0.00 0.00 85 1033.1
20260831004924 53 185 0.9 4.3 0.00 0.00 0.00 85 1033.2
20260831004424 53 193 1.7 4.3 0.00 0.00 0.00 85 1033.2
20260831003924 53 202 1.7 4.3 0.00 0.00 0.00 85 1033.2
20260831003424 53 205 1.7 4.3 0.00 0.00 0.00 85 1033.3
20260831002923 53 212 0.9 3.5 0.00 0.00 0.00 85 1033.3
20260831002424 53 237 0.9 3.5 0.00 0.00 0.00 85 1033.3
20260831001924 53 205 0.9 2.6 0.00 0.00 0.00 86 1033.3
20260831001424 53 206 0.9 3.5 0.00 0.00 0.00 86 1033.3
20260831000924 53 191 0.9 3.5 0.00 0.00 0.00 86 1033.4
20260831000425 53 168 0.9 3.5 0.00 0.00 0.00 86 1033.4
20260830235923 53 156 0.9 3.5 0.00 0.00 0.00 86 1033.4
20260830235422 53 192 0.9 3.5 0.00 0.00 0.00 86 1033.3
20260830234929 53 208 0.0 3.5 0.00 0.00 0.00 86 1033.4
20260830234923 53 193 0.9 3.5 0.00 0.00 0.00 86 1033.4
20260830233922 53 210 0.0 4.3 0.00 0.00 0.00 87 1033.4
20260830233422 53 210 0.0 4.3 0.00 0.00 0.00 86 1033.4
20260830232923 53 221 0.0 2.6 0.00 0.00 0.00 87 1033.4
20260830232421 53 222 0.0 3.5 0.00 0.00 0.00 87 1033.4
20260830231923 52 221 0.9 3.5 0.00 0.00 0.00 87 1033.4
20260830231421 52 195 0.9 3.5 0.00 0.00 0.00 87 1033.4
20260830230921 52 193 0.0 3.5 0.00 0.00 0.00 87 1033.3
20260830230421 52 206 0.0 1.7 0.00 0.00 0.00 87 1033.3
20260830225921 52 206 0.0 2.6 0.00 0.00 0.00 88 1033.3
20260830225421 52 206 0.0 2.6 0.00 0.00 0.00 87 1033.3
20260830224921 52 210 0.0 1.7 0.00 0.00 0.00 88 1033.3
20260830224419 52 210 0.0 1.7 0.00 0.00 0.00 88 1033.3
20260830223920 52 210 0.0 2.6 0.00 0.00 0.00 88 1033.4
20260830223419 52 210 0.0 2.6 0.00 0.00 0.00 88 1033.4
20260830222921 52 208 0.0 2.6 0.00 0.00 0.00 88 1033.4
20260830222417 52 208 0.0 2.6 0.00 0.00 0.00 88 1033.4
20260830221919 52 208 0.0 1.7 0.00 0.00 0.00 88 1033.3
20260830221421 52 207 0.0 2.6 0.00 0.00 0.00 89 1033.3
20260830220918 52 207 0.0 2.6 0.00 0.00 0.00 89 1033.3
20260830220417 52 208 0.0 3.5 0.00 0.00 0.00 89 1033.3
20260830215919 52 208 0.9 3.5 0.00 0.00 0.00 89 1033.3
20260830215415 52 209 0.0 2.6 0.00 0.00 0.00 89 1033.3
20260830214917 52 208 0.0 1.7 0.00 0.00 0.00 89 1033.3
20260830214421 52 208 0.0 1.7 0.00 0.00 0.00 90 1033.3
20260830214415 52 208 0.0 1.7 0.00 0.00 0.00 89 1033.3
20260830213415 52 208 0.0 1.7 0.00 0.00 0.00 90 1033.2
20260830212915 52 208 0.0 1.7 0.00 0.00 0.00 90 1033.2
20260830212415 52 208 0.0 1.7 0.00 0.00 0.00 90 1033.1
20260830211914 51 208 0.0 1.7 0.00 0.00 0.00 90 1033.1
20260830211415 51 208 0.0 1.7 0.00 0.00 0.00 90 1033.1
20260830210913 51 208 0.0 1.7 0.00 0.00 0.00 90 1033.1
20260830210414 51 208 0.0 0.9 0.00 0.00 0.00 90 1033.1
20260830205919 51 208 0.0 0.9 0.00 0.00 0.00 90 1033.1
20260830205914 51 208 0.0 0.9 0.00 0.00 0.00 90 1033.1
20260830204918 51 208 0.0 0.9 0.00 0.00 0.00 90 1033.0
20260830204912 51 208 0.0 0.9 0.00 0.00 0.00 90 1033.1
20260830203919 51 208 0.0 0.9 0.00 0.00 0.00 90 1033.1
20260830203913 51 208 0.0 0.9 0.00 0.00 0.00 90 1033.0
20260830202912 51 208 0.0 0.9 0.00 0.00 0.00 90 1033.0
20260830202419 51 208 0.0 1.7 0.00 0.00 0.00 90 1033.0
20260830202413 51 208 0.0 1.7 0.00 0.00 0.00 90 1033.0
20260830201414 51 208 0.0 0.9 0.00 0.00 0.00 90 1032.9
20260830200913 51 208 0.0 0.9 0.00 0.00 0.00 90 1032.9
20260830200419 51 208 0.0 1.7 0.00 0.00 0.00 90 1032.9
20260830200415 51 208 0.0 1.7 0.00 0.00 0.00 90 1032.9
20260830200034 52 208 0.0 1.7 0.00 0.00 0.00 90 1032.9
20260830194913 52 208 0.0 1.7 0.00 0.00 0.00 90 1033.0
20260830194415 52 208 0.0 0.9 0.00 0.00 0.00 90 1033.0
20260830193912 52 208 0.0 1.7 0.00 0.00 0.00 90 1033.0
20260830193409 52 208 0.0 1.7 0.00 0.00 0.00 89 1032.9
20260830192909 52 208 0.0 1.7 0.00 0.00 0.00 89 1032.9
20260830192409 52 208 0.0 0.9 0.00 0.00 0.00 90 1032.9
20260830191909 52 208 0.0 2.6 0.00 0.00 0.00 90 1032.9
20260830191409 52 208 0.0 2.6 0.00 0.00 0.00 90 1032.9
20260830190910 52 209 0.0 1.7 0.00 0.00 0.00 90 1032.9
20260830190411 52 208 0.0 2.6 0.00 0.00 0.00 90 1032.9
20260830185909 52 208 0.0 2.6 0.00 0.00 0.00 90 1032.8
20260830185416 52 211 0.0 2.6 0.00 0.00 0.00 90 1032.9
20260830185409 52 211 0.0 2.6 0.00 0.00 0.00 90 1032.8
20260830185035 52 209 0.0 3.5 0.00 0.00 0.00 90 1032.9
20260830183909 52 208 0.9 3.5 0.00 0.00 0.00 90 1032.9
20260830183408 53 210 0.9 2.6 0.00 0.00 0.00 90 1032.9
20260830182909 53 199 0.0 4.3 0.00 0.00 0.00 90 1032.9
20260830182406 53 199 0.0 4.3 0.00 0.00 0.00 90 1032.8
20260830181912 53 214 0.0 1.7 0.00 0.00 0.00 90 1032.8
20260830181908 53 214 0.0 2.6 0.00 0.00 0.00 90 1032.9
20260830180906 53 214 0.0 3.5 0.00 0.00 0.00 90 1032.8
20260830180406 53 209 0.0 3.5 0.00 0.00 0.00 90 1032.8
20260830175904 53 227 0.0 3.5 0.00 0.00 0.00 90 1032.8
20260830175404 53 226 0.0 3.5 0.00 0.00 0.00 90 1032.9
20260830174903 53 226 0.0 2.6 0.00 0.00 0.00 90 1032.9
20260830174403 53 224 0.0 2.6 0.00 0.00 0.00 90 1032.9
20260830173910 54 175 0.0 2.6 0.00 0.00 0.00 89 1033.1
20260830173904 53 224 0.0 1.7 0.00 0.00 0.00 90 1033.0
20260830173403 54 180 0.0 2.6 0.00 0.00 0.00 89 1033.0
20260830172404 54 175 0.0 0.9 0.00 0.00 0.00 90 1033.1
20260830171910 54 175 0.0 0.9 0.00 0.00 0.00 90 1033.0
20260830171904 54 175 0.0 0.9 0.00 0.00 0.00 89 1033.0
20260830170910 54 175 0.0 0.0 0.00 0.00 0.00 90 1033.1
20260830170902 54 175 0.0 0.9 0.00 0.00 0.00 90 1033.0
20260830165909 54 175 0.0 0.0 0.00 0.00 0.00 90 1033.2
20260830165903 54 175 0.0 0.0 0.00 0.00 0.00 90 1033.2
20260830165525 54 175 0.0 0.0 0.00 0.00 0.00 90 1033.3
20260830164402 54 175 0.0 0.0 0.00 0.00 0.00 90 1033.2
20260830163902 54 175 0.0 0.0 0.00 0.00 0.00 90 1033.2
20260830163401 54 175 0.0 0.0 0.00 0.00 0.00 90 1033.3
20260830162900 54 175 0.0 0.0 0.00 0.00 0.00 90 1033.3
20260830162401 54 175 0.0 0.9 0.00 0.00 0.00 90 1033.3
20260830161859 54 175 0.0 0.9 0.00 0.00 0.00 90 1033.4
20260830161358 54 175 0.0 0.9 0.00 0.00 0.00 90 1033.3
20260830160900 54 175 0.0 0.9 0.00 0.00 0.00 90 1033.3
20260830160406 54 175 0.0 0.9 0.00 0.00 0.00 90 1033.4
20260830155905 54 175 0.0 0.0 0.00 0.00 0.00 90 1033.4
20260830155901 54 175 0.0 0.9 0.00 0.00 0.00 90 1033.4
20260830155525 54 175 0.0 0.0 0.00 0.00 0.00 90 1033.4
20260830154358 54 175 0.0 0.0 0.00 0.00 0.00 90 1033.4
20260830153858 54 175 0.0 0.0 0.00 0.00 0.00 90 1033.5
20260830153402 54 175 0.0 0.0 0.00 0.00 0.00 90 1033.5
20260830152858 54 175 0.0 0.0 0.00 0.00 0.00 90 1033.5
20260830152402 54 175 0.0 0.0 0.00 0.00 0.00 90 1033.5
20260830151902 54 175 0.0 0.0 0.00 0.00 0.00 90 1033.5
20260830151857 54 175 0.0 0.0 0.00 0.00 0.00 90 1033.6
20260830150856 54 175 0.0 0.0 0.00 0.00 0.00 90 1033.5
20260830150442 54 175 0.0 0.0 0.00 0.00 0.00 90 1033.4
20260830145857 54 175 0.0 0.0 0.00 0.00 0.00 90 1033.5
20260830145403 54 175 0.0 0.0 0.00 0.00 0.00 90 1033.5
20260830145358 54 175 0.0 0.0 0.00 0.00 0.00 90 1033.5
20260830144357 54 175 0.0 0.0 0.00 0.00 0.00 90 1033.5
20260830143903 54 175 0.0 0.0 0.00 0.00 0.00 90 1033.5
20260830143856 54 175 0.0 0.0 0.00 0.00 0.00 90 1033.4
20260830143357 54 175 0.0 0.0 0.00 0.00 0.00 90 1033.4
20260830143023 54 175 0.0 0.0 0.00 0.00 0.00 90 1033.5
20260830141854 54 175 0.0 0.0 0.00 0.00 0.00 90 1033.6
20260830141401 54 175 0.0 1.7 0.00 0.00 0.00 90 1033.7
20260830141352 54 175 0.0 0.9 0.00 0.00 0.00 90 1033.7
20260830140352 53 175 0.0 1.7 0.00 0.00 0.00 90 1033.7
20260830135856 53 175 0.0 0.0 0.00 0.00 0.00 90 1033.8
20260830135352 53 175 0.0 0.0 0.00 0.00 0.00 90 1033.8
20260830134852 53 175 0.0 0.0 0.00 0.00 0.00 90 1033.8
20260830134358 53 175 0.0 0.0 0.00 0.00 0.00 90 1033.9
20260830134353 53 175 0.0 0.0 0.00 0.00 0.00 90 1033.9
20260830133854 53 175 0.0 0.0 0.00 0.00 0.00 90 1033.9
20260830132851 53 175 0.0 0.0 0.00 0.00 0.00 90 1034.0
20260830132351 53 175 0.0 0.0 0.00 0.00 0.00 90 1034.0
20260830131851 53 175 0.0 0.0 0.00 0.00 0.00 90 1034.0
20260830131350 53 175 0.0 0.0 0.00 0.00 0.00 90 1034.0
20260830130851 53 175 0.0 0.0 0.00 0.00 0.00 90 1034.0
20260830130356 52 175 0.0 0.0 0.00 0.00 0.00 90 1034.0
20260830130350 52 175 0.0 0.0 0.00 0.00 0.00 91 1034.0
20260830125349 52 175 0.0 0.0 0.00 0.00 0.00 90 1034.0
20260830124849 52 175 0.0 0.0 0.00 0.00 0.00 90 1034.0
20260830124350 52 175 0.0 0.0 0.00 0.00 0.00 90 1033.9
20260830123849 52 175 0.0 0.0 0.00 0.00 0.00 90 1033.9
20260830123347 51 175 0.0 0.0 0.00 0.00 0.00 90 1033.9
20260830122857 51 175 0.0 0.0 0.00 0.00 0.00 90 1033.9
20260830122851 51 175 0.0 0.0 0.00 0.00 0.00 90 1033.8
20260830121849 51 175 0.0 0.0 0.00 0.00 0.00 90 1033.8
20260830121350 51 175 0.0 0.0 0.00 0.00 0.00 89 1033.9
20260830120849 51 175 0.0 0.0 0.00 0.00 0.00 89 1033.9
20260830120349 51 175 0.0 0.0 0.00 0.00 0.00 89 1033.8
20260830115849 51 175 0.0 0.0 0.00 0.00 0.00 89 1033.8
20260830115349 51 175 0.0 0.0 0.00 0.00 0.00 89 1033.7
20260830114853 51 175 0.0 0.0 0.00 0.00 0.00 89 1033.7
20260830114849 51 175 0.0 0.0 0.00 0.00 0.00 89 1033.8
20260830113848 51 175 0.0 0.0 0.00 0.00 0.00 89 1033.7
20260830113349 51 175 0.0 0.0 0.00 0.00 0.00 88 1033.7
20260830112847 51 175 0.0 0.0 0.00 0.00 0.00 88 1033.7
20260830112347 51 175 0.0 0.0 0.00 0.00 0.00 88 1033.7
20260830111854 51 175 0.0 0.0 0.00 0.00 0.00 88 1033.7
20260830111847 51 175 0.0 0.0 0.00 0.00 0.00 88 1033.7
20260830110848 51 175 0.0 0.0 0.00 0.00 0.00 87 1033.7
20260830110347 52 175 0.0 0.0 0.00 0.00 0.00 87 1033.7
20260830105847 52 175 0.0 0.0 0.00 0.00 0.00 87 1033.7
20260830105351 52 175 0.0 0.0 0.00 0.00 0.00 87 1033.5
20260830105345 52 175 0.0 0.0 0.00 0.00 0.00 87 1033.6
20260830104845 52 175 0.0 0.0 0.00 0.00 0.00 87 1033.5
20260830103847 53 175 0.0 0.0 0.00 0.00 0.00 87 1033.5
20260830103344 53 175 0.0 0.0 0.00 0.00 0.00 86 1033.4
20260830102845 53 175 0.0 0.0 0.00 0.00 0.00 86 1033.5
20260830102344 53 175 0.0 0.0 0.00 0.00 0.00 87 1033.5
20260830101848 53 175 0.0 0.0 0.00 0.00 0.00 86 1033.5
20260830101844 53 175 0.0 0.0 0.00 0.00 0.00 86 1033.5
20260830100845 53 175 0.0 0.0 0.00 0.00 0.00 86 1033.4
20260830100350 53 175 0.0 0.0 0.00 0.00 0.00 85 1033.4
20260830100344 53 175 0.0 0.0 0.00 0.00 0.00 86 1033.4
20260830095344 53 175 0.0 0.0 0.00 0.00 0.00 85 1033.2
20260830094844 54 175 0.0 0.0 0.00 0.00 0.00 84 1033.3
20260830094344 54 175 0.0 0.0 0.00 0.00 0.00 84 1033.2
20260830093843 54 175 0.0 0.0 0.00 0.00 0.00 84 1033.2
20260830093342 54 175 0.0 0.0 0.00 0.00 0.00 84 1033.2
20260830092844 54 175 0.0 0.9 0.00 0.00 0.00 83 1033.2
20260830092345 54 175 0.0 0.9 0.00 0.00 0.00 83 1033.2
20260830091844 54 175 0.0 0.0 0.00 0.00 0.00 83 1033.2
20260830091343 55 175 0.0 0.0 0.00 0.00 0.00 83 1033.2
20260830090845 55 175 0.0 2.6 0.00 0.00 0.00 82 1033.2
20260830090344 55 175 0.0 2.6 0.00 0.00 0.00 82 1033.2
20260830085843 55 175 0.0 2.6 0.00 0.00 0.00 82 1033.1
20260830085344 55 175 0.0 2.6 0.00 0.00 0.00 81 1033.0
20260830084844 55 175 0.9 3.5 0.00 0.00 0.00 81 1033.0
20260830084343 55 175 0.9 5.2 0.00 0.00 0.00 80 1033.0
20260830083851 56 185 0.9 3.5 0.00 0.00 0.00 79 1032.9
20260830083845 55 175 0.9 5.2 0.00 0.00 0.00 79 1033.0
20260830082841 56 191 0.0 3.5 0.00 0.00 0.00 78 1032.8
20260830082342 56 191 0.0 2.6 0.00 0.00 0.00 78 1032.9
20260830081841 56 192 0.9 2.6 0.00 0.00 0.00 77 1032.8
20260830081343 56 192 0.9 2.6 0.00 0.00 0.00 77 1032.8
20260830080840 57 192 0.0 2.6 0.00 0.00 0.00 76 1032.6
20260830080340 57 193 0.0 2.6 0.00 0.00 0.00 76 1032.6
20260830075841 57 193 0.0 2.6 0.00 0.00 0.00 76 1032.6
20260830075341 57 193 0.0 2.6 0.00 0.00 0.00 76 1032.6
20260830074840 58 194 0.0 2.6 0.00 0.00 0.00 76 1032.6
20260830074339 58 199 0.0 2.6 0.00 0.00 0.00 76 1032.6
20260830073845 58 201 0.0 1.7 0.00 0.00 0.00 76 1032.6
20260830073841 58 200 0.0 2.6 0.00 0.00 0.00 76 1032.6
20260830073502 58 201 0.0 1.7 0.00 0.00 0.00 75 1032.5
20260830073005 58 201 0.0 3.5 0.00 0.00 0.00 75 1032.5
20260830072340 58 201 0.0 2.6 0.00 0.00 0.00 75 1032.6
20260830071336 59 199 0.9 4.3 0.00 0.00 0.00 74 1032.5
20260830070843 59 205 0.9 4.3 0.00 0.00 0.00 73 1032.5
20260830070837 59 196 0.9 4.3 0.00 0.00 0.00 74 1032.5
20260830065835 60 193 0.9 4.3 0.00 0.00 0.00 73 1032.5
20260830065342 60 239 0.9 2.6 0.00 0.00 0.00 72 1032.6
20260830065335 60 221 0.9 3.5 0.00 0.00 0.00 72 1032.5
20260830064835 60 224 0.9 3.5 0.00 0.00 0.00 72 1032.6
20260830063832 60 240 0.9 2.6 0.00 0.00 0.00 71 1032.5
20260830063332 60 241 0.0 2.6 0.00 0.00 0.00 70 1032.4
20260830062832 60 241 0.9 2.6 0.00 0.00 0.00 70 1032.4
20260830062331 60 241 0.9 2.6 0.00 0.00 0.00 71 1032.5
20260830061833 60 241 0.9 2.6 0.00 0.00 0.00 70 1032.5
20260830061330 60 241 0.9 2.6 0.00 0.00 0.00 70 1032.6
20260830060833 60 242 0.9 2.6 0.00 0.00 0.00 70 1032.7
20260830060333 60 242 1.7 3.5 0.00 0.00 0.00 69 1032.7
20260830055831 61 242 1.7 3.5 0.00 0.00 0.00 68 1032.7
20260830055338 61 195 0.9 3.5 0.00 0.00 0.00 68 1032.6
20260830055333 61 197 0.9 3.5 0.00 0.00 0.00 68 1032.7
20260830054330 62 197 0.9 2.6 0.00 0.00 0.00 69 1032.7
20260830053830 61 197 0.9 1.7 0.00 0.00 0.00 69 1032.7
20260830053330 61 197 0.9 1.7 0.00 0.00 0.00 70 1032.8